St. Paul, MN

4:56 PM CDT on April 27, 2017 (GMT -0500)
Saint Paul Downtown-Holman

Weather History for KSTP - April, 2013

Change the Weather History Date:

Wednesday, April 3, 2013

  Actual Average Record
Temperature  
Mean Temperature 34 °F -  
Max Temperature 46 °F 49 °F 66 °F (2005)
Min Temperature 21 °F 31 °F 21 °F (2002)
Degree Days  
Heating Degree Days 32    
Moisture  
Dew Point 21 °F    
Average Humidity 60    
Maximum Humidity 81    
Minimum Humidity 39    
Precipitation  
Precipitation 0.00 in - - ()
Sea Level Pressure  
Sea Level Pressure 30.31 in    
Wind  
Wind Speed 6 mph (SSE)    
Max Wind Speed 18 mph    
Max Gust Speed 30 mph    
Visibility 10 miles    
Events      
Averages and records for this station are not official NWS values.
T = Trace of Precipitation, MM = Missing Value Source: NWS Daily Summary

Daily Weather History Graph

Daily Weather History Graph

Search for Another Location

Airport or City:

Trip Planner

Search our weather history database for the weather conditions in past years. The results will help you decide how hot, cold, wet, or windy it might be!

Date:

Astronomy

Apr. 03, 2013 Rise Set
Actual Time 6:48 AM CDT 7:42 PM CDT
Civil Twilight 6:18 AM CDT 8:12 PM CDT
Nautical Twilight 5:43 AM CDT 8:48 PM CDT
Astronomical Twilight 5:06 AM CDT 9:25 PM CDT
Moon 2:46 AM CDT (4/3) 12:39 PM CDT (4/3)
Length of Visible Light 13h 53m
Length of Day
12h 54m
Last Quarter, 44% of the Moon is Illuminated
Apr 3
Last Quarter
Apr 10
New
Apr 18
First Quarter
Apr 25
Full
May 2
Last Quarter

Hourly Weather History & Observations

Time (CDT) Temp. Windchill Dew Point Humidity Pressure Visibility Wind Dir Wind Speed Gust Speed Precip Events Conditions
12:53 AM 26.1 °F - 17.1 °F 69% 30.40 in 10.0 mi Calm Calm - N/A   Clear
1:53 AM 25.0 °F - 16.0 °F 69% 30.41 in 10.0 mi Calm Calm - N/A   Clear
2:53 AM 25.0 °F - 17.1 °F 72% 30.41 in 10.0 mi Calm Calm - N/A   Clear
3:53 AM 23.0 °F - 15.1 °F 72% 30.40 in 10.0 mi Calm Calm - N/A   Clear
4:53 AM 21.9 °F - 16.0 °F 78% 30.41 in 10.0 mi Calm Calm - N/A   Clear
5:53 AM 21.9 °F - 16.0 °F 78% 30.41 in 10.0 mi Calm Calm - N/A   Clear
6:53 AM 21.0 °F - 16.0 °F 81% 30.42 in 10.0 mi Calm Calm - N/A   Clear
7:53 AM 24.1 °F 18.2 °F 19.0 °F 81% 30.43 in 10.0 mi ESE 4.6 mph - N/A   Clear
8:53 AM 30.0 °F 24.1 °F 21.0 °F 69% 30.45 in 10.0 mi SE 5.8 mph - N/A   Clear
9:53 AM 34.0 °F 26.6 °F 19.0 °F 54% 30.42 in 10.0 mi SE 9.2 mph - N/A   Clear
10:53 AM 37.0 °F 29.8 °F 16.0 °F 42% 30.39 in 10.0 mi SE 10.4 mph - N/A   Clear
11:53 AM 39.9 °F 32.5 °F 17.1 °F 40% 30.37 in 10.0 mi SE 12.7 mph 18.4 mph N/A   Clear
12:53 PM 41.0 °F 34.3 °F 19.0 °F 41% 30.35 in 10.0 mi SSE 11.5 mph - N/A   Clear
1:53 PM 43.0 °F 34.8 °F 19.9 °F 40% 30.33 in 10.0 mi SSE 18.4 mph 29.9 mph N/A   Clear
2:53 PM 45.0 °F 37.9 °F 21.0 °F 39% 30.31 in 10.0 mi SSE 16.1 mph 25.3 mph N/A   Clear
3:53 PM 46.0 °F 39.3 °F 24.1 °F 42% 30.27 in 10.0 mi SSE 16.1 mph 25.3 mph N/A   Clear
4:53 PM 45.0 °F 37.9 °F 26.1 °F 48% 30.24 in 10.0 mi South 16.1 mph 25.3 mph N/A   Overcast
5:53 PM 45.0 °F 38.2 °F 27.0 °F 49% 30.22 in 10.0 mi South 15.0 mph 25.3 mph N/A   Partly Cloudy
6:53 PM 45.0 °F 38.9 °F 28.0 °F 52% 30.20 in 10.0 mi South 12.7 mph - N/A   Clear
7:53 PM 41.0 °F 34.3 °F 28.9 °F 62% 30.18 in 10.0 mi SSE 11.5 mph - N/A   Clear
8:53 PM 39.0 °F 31.4 °F 30.0 °F 70% 30.16 in 10.0 mi SSE 12.7 mph - N/A   Clear
9:53 PM 39.0 °F 31.0 °F 28.9 °F 67% 30.14 in 10.0 mi SSE 13.8 mph - N/A   Clear
10:53 PM 37.0 °F 29.8 °F 28.0 °F 70% 30.12 in 10.0 mi SSE 10.4 mph - N/A   Clear
11:53 PM 39.9 °F 32.5 °F 27.0 °F 60% 30.10 in 10.0 mi South 12.7 mph 18.4 mph N/A   Clear